Date String (YYYY-MM-DD hh:mm:ss) UTC,Instrument flags,Ambient pressure (hPa),Sample flow (lpm),Bypass flow (lpm),Sample temperature (°C),Ambient temperature (°C),ASC tube jacket temperature (°C),LED temperature (°C),Box temperature (°C),Sample RH (%),Span deviation,Mass concentration (μg/m³),Mass concentration (μg/m³),Mass concentration (μg/m³)
DateTimeUTC,F1_M11,P_M11,Q1_M11,Q2_M11,T1_M11,T2_M11,T3_M11,T4_M11,T5_M11,U1_M11,ZSPAN_M11,X2_M11,X0_M11,X1_M11
2021-12-04 18:00:00,,0826.5,5.02,0.00,25.9,25.2,00.0,34.8,27.8,15.4,0000.0,0005.86,0019.12,0004.44
2021-12-04 18:01:00,,0826.5,4.98,0.00,26.0,25.2,00.0,34.8,27.8,15.4,0000.0,0005.99,0020.34,0004.46
2021-12-04 18:02:00,,0826.5,5.01,0.00,26.0,25.3,00.0,34.8,27.9,15.3,0000.0,0005.97,0021.05,0004.47
2021-12-04 18:03:00,,0826.5,4.99,0.00,26.0,25.3,00.0,34.8,27.9,15.3,0000.0,0005.95,0020.87,0004.45
2021-12-04 18:04:00,,0826.5,5.01,0.00,26.0,25.3,00.0,34.9,27.9,15.2,0000.0,0005.94,0020.50,0004.46
2021-12-04 18:05:00,,0826.5,5.02,0.00,26.0,25.3,00.0,34.9,27.9,15.2,0000.0,0005.92,0019.44,0004.47
2021-12-04 18:06:00,,0826.4,4.99,0.00,26.1,25.4,00.0,34.9,27.9,15.2,0000.0,0005.89,0019.04,0004.46
2021-12-04 18:07:00,,0826.4,5.01,0.00,26.1,25.4,00.0,34.9,27.9,15.1,0000.0,0005.85,0018.52,0004.45
2021-12-04 18:08:00,,0826.3,5.01,0.00,26.1,25.4,00.0,34.9,28.0,15.1,0000.0,0005.78,0017.82,0004.45
2021-12-04 18:09:00,,0826.3,4.99,0.00,26.1,25.4,00.0,35.0,28.0,15.0,0000.0,0005.76,0018.31,0004.43
2021-12-04 18:10:00,,0826.3,5.02,0.00,26.1,25.5,00.0,35.0,28.0,15.0,0000.0,0005.70,0017.81,0004.41
2021-12-04 18:11:00,,0826.2,4.98,0.00,26.2,25.5,00.0,35.0,28.0,15.1,0000.0,0005.63,0017.68,0004.40
2021-12-04 18:12:00,,0826.2,5.00,0.00,26.2,25.5,00.0,35.0,28.1,15.0,0000.0,0005.56,0017.19,0004.39
2021-12-04 18:13:00,,0826.2,5.00,0.00,26.2,25.5,00.0,35.0,28.1,15.0,0000.0,0005.56,0016.67,0004.38
2021-12-04 18:14:00,,0826.2,4.98,0.00,26.2,25.5,00.0,35.1,28.1,14.9,0000.0,0005.54,0016.34,0004.39
2021-12-04 18:15:00,,0826.1,5.00,0.00,26.2,25.5,00.0,35.1,28.1,14.9,0000.0,0005.51,0015.50,0004.37
2021-12-04 18:16:00,,0826.2,5.00,0.00,26.3,25.6,00.0,35.1,28.2,14.9,0000.0,0005.47,0015.72,0004.36
2021-12-04 18:17:00,,0826.2,5.00,0.00,26.3,25.6,00.0,35.1,28.2,14.9,0000.0,0005.48,0015.92,0004.34
2021-12-04 18:18:00,,0826.2,5.00,0.00,26.3,25.6,00.0,35.1,28.2,15.0,0000.0,0005.51,0016.42,0004.33
2021-12-04 18:19:00,,0826.2,5.01,0.00,26.3,25.6,00.0,35.2,28.2,14.9,0000.0,0005.56,0017.54,0004.34
2021-12-04 18:20:00,,0826.2,5.00,0.00,26.4,25.7,00.0,35.2,28.3,14.8,0000.0,0005.58,0018.11,0004.35
2021-12-04 18:21:00,,0826.2,5.00,0.00,26.4,25.7,00.0,35.2,28.3,14.8,0002.0,0005.61,0018.96,0004.36
2021-12-04 18:22:00,,0826.2,4.99,0.00,26.4,25.7,00.0,35.2,28.3,14.8,0000.0,0005.63,0019.08,0004.36
2021-12-04 18:23:00,,0826.2,5.01,0.00,26.4,25.7,00.0,35.3,28.3,14.7,0000.0,0005.66,0019.14,0004.36
2021-12-04 18:24:00,,0826.2,5.00,0.00,26.4,25.8,00.0,35.3,28.3,14.7,0000.0,0005.71,0020.01,0004.37
2021-12-04 18:25:00,,0826.2,5.00,0.00,26.5,25.8,00.0,35.3,28.4,14.7,0000.0,0005.71,0019.32,0004.37
2021-12-04 18:26:00,,0826.2,5.00,0.00,26.5,25.8,00.0,35.3,28.4,14.7,0000.0,0005.80,0019.77,0004.41
2021-12-04 18:27:00,,0826.1,5.01,0.00,26.5,25.8,00.0,35.3,28.4,14.7,0000.0,0005.87,0019.66,0004.44
2021-12-04 18:28:00,,0826.0,4.99,0.00,26.5,25.9,00.0,35.4,28.4,14.6,0000.0,0005.90,0020.19,0004.47
2021-12-04 18:29:00,,0826.0,5.01,0.00,26.6,25.9,00.0,35.4,28.5,14.7,0000.0,0005.86,0020.64,0004.49
2021-12-04 18:30:00,,0826.0,4.99,0.00,26.6,25.9,00.0,35.4,28.5,14.6,0000.0,0005.86,0019.76,0004.51
2021-12-04 18:31:00,,0825.9,5.00,0.00,26.6,26.0,00.0,35.4,28.5,14.6,0000.0,0005.82,0018.09,0004.54
2021-12-04 18:32:00,,0825.9,5.01,0.00,26.6,26.0,00.0,35.5,28.5,14.5,0000.0,0005.85,0018.05,0004.57
2021-12-04 18:33:00,,0825.9,5.01,0.00,26.6,26.0,00.0,35.5,28.6,14.5,0000.0,0005.91,0017.19,0004.61
2021-12-04 18:34:00,,0826.0,4.99,0.00,26.7,26.0,00.0,35.5,28.5,14.6,0000.0,0005.94,0016.63,0004.65
2021-12-04 18:35:00,,0825.9,5.00,0.00,26.7,26.0,00.0,35.5,28.5,14.6,0000.0,0005.90,0015.54,0004.67
2021-12-04 18:36:00,,0825.9,5.02,0.00,26.7,26.0,00.0,35.5,28.6,14.6,0000.0,0005.91,0015.63,0004.70
2021-12-04 18:37:00,,0825.9,4.98,0.00,26.7,26.0,00.0,35.6,28.6,14.6,0000.0,0005.92,0015.88,0004.71
2021-12-04 18:38:00,,0825.8,5.01,0.00,26.7,26.1,00.0,35.6,28.6,14.5,0000.0,0005.92,0016.57,0004.73
2021-12-04 18:39:00,,0825.8,5.00,0.00,26.8,26.1,00.0,35.6,28.7,14.5,0000.0,0005.89,0015.85,0004.75
2021-12-04 18:40:00,,0825.9,4.99,0.00,26.8,26.1,00.0,35.6,28.7,14.5,0000.0,0005.94,0015.58,0004.78
2021-12-04 18:41:00,,0825.8,5.00,0.00,26.8,26.1,00.0,35.7,28.7,14.5,0000.0,0005.94,0016.03,0004.81
2021-12-04 18:42:00,,0825.7,5.01,0.00,26.8,26.2,00.0,35.7,28.7,14.4,0000.0,0006.02,0016.36,0004.84
2021-12-04 18:43:00,,0825.9,4.99,0.00,26.8,26.2,00.0,35.7,28.7,14.4,0000.0,0006.06,0015.77,0004.85
2021-12-04 18:44:00,,0825.6,5.00,0.00,26.9,26.2,00.0,35.7,28.7,14.4,0000.0,0006.05,0016.22,0004.86
2021-12-04 18:45:00,,0825.7,5.01,0.00,26.9,26.2,00.0,35.7,28.8,14.3,0000.0,0006.04,0017.19,0004.87
2021-12-04 18:46:00,,0825.6,4.99,0.00,26.9,26.2,00.0,35.8,28.8,14.3,0000.0,0006.11,0017.97,0004.89
2021-12-04 18:47:00,,0825.6,5.01,0.00,26.9,26.2,00.0,35.8,28.8,14.2,0000.0,0006.17,0017.85,0004.91
2021-12-04 18:48:00,,0825.6,5.00,0.00,27.0,26.3,00.0,35.8,28.8,14.2,0000.0,0006.18,0016.97,0004.93
2021-12-04 18:49:00,,0825.5,4.99,0.00,27.0,26.3,00.0,35.8,28.9,14.1,0000.0,0006.20,0016.12,0004.95
2021-12-04 18:50:00,,0825.5,5.02,0.00,27.0,26.3,00.0,35.8,28.9,14.2,0000.0,0006.26,0016.37,0004.96
2021-12-04 18:51:00,,0825.5,4.99,0.00,27.0,26.4,00.0,35.9,28.9,14.1,0000.0,0006.27,0016.16,0004.95
2021-12-04 18:52:00,,0825.4,5.00,0.00,27.1,26.4,00.0,35.9,29.0,14.1,0000.0,0006.27,0015.31,0004.94
2021-12-04 18:53:00,,0825.4,5.01,0.00,27.1,26.4,00.0,35.9,29.0,14.1,0001.5,0006.25,0015.92,0004.91
2021-12-04 18:54:00,,0825.4,5.00,0.00,27.1,26.5,00.0,35.9,29.0,14.1,0000.0,0006.18,0017.17,0004.88
2021-12-04 18:55:00,,0825.4,4.99,0.00,27.1,26.5,00.0,36.0,29.0,14.0,0000.0,0006.13,0018.73,0004.87
2021-12-04 18:56:00,,0825.3,4.99,0.00,27.2,26.5,00.0,36.0,29.0,13.9,0000.0,0006.12,0018.61,0004.85
2021-12-04 18:57:00,,0825.3,5.01,0.00,27.2,26.5,00.0,36.0,29.0,13.9,0000.0,0006.09,0018.78,0004.84
2021-12-04 18:58:00,,0825.3,4.99,0.00,27.2,26.5,00.0,36.0,29.1,14.0,0000.0,0006.04,0019.46,0004.81
2021-12-04 18:59:00,,0825.3,5.01,0.00,27.2,26.5,00.0,36.0,29.1,14.1,0000.0,0006.03,0019.83,0004.80
